Location: Estes Par
(40.3770°N, 105.5210°W)
Time: 08:58:35
(UTC-06:00)

Hubble Space Telescope - Pass Details

Date: 08 October 2017
Orbit: 537 x 541 km, 28.5° (Epoch: 16 October)

Event Time Altitude Azimuth Distance (km) Brightness Sun altitude
Exits shadow 05:02:33 13° 163° (SSE) 1,577 3.2 -24.2°
Drops below altitude 10° 05:03:39 10° 148° (SSE) 1,782 3.6 -24.0°
Sets 05:06:41 0° 125° (SE) 2,673 4.9 -23.4°
